Temperature
21 20 21 20 20 20 20 20 20 20 20 20 20 20 20 20 20 19 19 19 19 19 19 18 18 18 18 18 18 18 18 18 18 18 18 18 18 18 18 18 17 17 18
21 20 21 20 20 20 20 20 20 20 20 20 20 20 20 20 20 19 19 19 19 19 19 18 18 18 18 18 18 18 18 18 18 18 18 18 18 17 17 17 17 17 17
21 20 21 20 20 20 20 20 20 20 20 20 20 20 20 20 19 19 19 19 19 19 19 18 18 18 18 18 18 18 18 18 18 18 17 17 17 17 17 17 17 17 17
21 20 20 20 20 20 20 20 20 20 20 20 20 20 20 20 19 19 19 19 19 19 19 19 19 19 19 19 18 18 18 18 18 17 17 17 17 17 17 17 17 17 17
20 20 20 21 20 20 20 20 20 20 20 20 20 20 20 19 19 19 19 19 19 19 19 19 19 19 19 19 18 18 18 18 18 17 17 17 17 17 17 17 17 17 17
20 20 20 20 20 20 20 20 20 20 20 20 20 20 19 19 19 19 19 19 19 19 19 19 19 19 19 19 18 18 18 18 17 17 17 17 17 17 17 17 17 17 17
21 20 20 20 20 20 20 20 20 20 20 20 20 20 19 19 19 19 19 19 19 19 19 19 19 19 19 19 18 18 18 18 17 17 17 17 17 18 17 17 17 17 17
21 20 19 20 20 20 20 20 20 20 20 20 19 19 19 19 19 19 19 19 18 18 18 18 18 19 18 18 18 18 18 18 17 17 17 17 17 18 17 17 17 17 17
20 20 19 19 19 19 19 19 20 19 19 19 19 19 19 19 19 19 18 18 18 18 18 18 18 18 18 18 18 18 18 18 17 17 17 17 18 18 17 17 17 17 17
20 19 18 18 18 19 19 19 19 19 19 19 19 19 19 18 18 18 18 18 18 18 18 18 18 18 18 18 18 18 18 18 17 17 17 17 18 18 18 17 17 17 17
19 19 18 18 18 18 18 18 19 19 19 19 19 18 18 18 18 18 18 18 18 18 18 18 18 18 18 18 18 18 18 17 18 18 18 17 18 18 18 17 17 17 17
18 18 18 18 18 18 18 18 18 18 18 18 18 18 18 18 18 18 17 18 18 18 18 18 18 18 18 17 18 18 17 17 18 18 18 18 18 18 18 17 17 17 17
18 18 18 18 18 18 18 18 18 18 18 18 18 18 18 18 18 17 17 17 17 17 17 17 17 17 17 17 17 17 17 18 18 18 18 18 18 18 18 17 17 17 17
18 19 18 18 18 18 18 18 18 18 18 18 18 18 18 18 17 17 17 17 17 17 17 17 17 17 17 17 17 17 17 17 17 18 17 18 18 18 18 17 17 17 17
18 18 18 18 18 18 18 18 17 17 17 17 18 18 18 17 17 17 17 17 17 17 17 17 17 17 17 17 17 17 17 17 17 17 17 17 18 18 18 18 17 17 17
18 18 18 18 18 18 18 18 18 17 17 17 17 17 17 17 17 17 17 17 17 17 16 17 16 17 17 17 17 17 17 17 17 17 17 17 17 18 18 18 18 17 17
18 18 18 18 18 18 18 17 17 17 17 17 17 17 17 17 17 17 17 17 16 16 16 16 16 16 16 16 16 16 16 17 17 17 17 17 17 17 18 18 18 18 18
18 18 18 18 18 18 18 17 17 17 17 17 16 16 16 16 16 16 16 16 16 16 16 16 16 16 16 16 16 16 16 16 16 16 16 16 17 17 17 17 18 18 18
18 18 18 18 17 17 17 17 17 17 17 16 16 16 16 16 16 16 15 15 16 15 15 15 16 16 16 16 16 16 16 16 16 16 16 16 16 17 17 17 17 17 17
18 18 18 18 18 17 17 17 16 16 16 16 16 16 16 16 15 15 15 15 15 15 15 15 15 15 15 15 16 16 16 16 16 16 16 16 16 16 16 17 17 17 17
17 18 17 17 18 17 17 17 16 16 16 16 15 15 15 15 15 15 15 14 14 14 14 14 14 14 15 15 15 16 16 16 16 16 16 16 16 16 16 16 16 17 17
17 17 17 17 17 17 17 17 16 16 16 15 15 15 15 14 14 14 14 14 14 14 14 14 14 14 14 14 14 15 16 17 16 16 16 16 16 16 16 16 16 16 16
17 17 17 17 17 17 17 16 16 16 15 15 15 15 14 14 14 14 13 13 13 13 14 13 13 13 14 14 14 15 16 17 17 16 16 16 16 16 16 16 16 16 16
18 17 17 17 17 16 16 16 15 15 15 15 14 14 14 13 13 13 13 13 13 13 13 13 13 13 13 14 14 14 14 14 15 16 16 16 15 15 15 15 15 16 16
18 17 17 17 16 16 16 15 15 15 15 14 14 13 13 13 12 12 12 12 12 12 12 12 12 12 13 13 14 14 14 14 14 14 15 15 15 15 15 15 15 15 15
18 17 17 16 16 16 15 15 15 14 14 13 13 13 13 13 13 12 12 11 11 12 11 11 12 12 12 12 13 13 13 14 14 14 14 14 15 15 15 15 15 15 15
Wind_Speed
14 18 21 17 16 15 15 17 17 17 17 17 16 16 15 14 13 12 11 10 9 8 7 7 7 7 8 8 9 10 10 10 10 11 12 12 12 12 13 13 13 15 17
17 20 21 18 16 16 15 16 16 16 16 16 16 15 14 13 12 11 11 10 9 8 7 7 7 8 8 9 10 10 10 10 10 10 12 12 12 11 11 8 7 16 16
18 21 21 18 17 16 15 15 15 15 15 15 14 14 13 13 12 11 10 9 8 7 7 7 7 8 8 9 9 10 10 10 10 9 9 11 12 10 10 11 15 17 16
18 20 20 19 17 16 15 15 14 14 14 14 13 13 12 12 11 10 9 9 8 7 7 6 7 7 8 8 9 9 9 9 9 7 6 9 11 12 11 12 14 15 15
17 18 19 20 17 16 15 15 14 13 13 12 12 11 11 10 10 9 8 8 7 7 6 6 6 7 7 8 8 8 8 8 7 7 6 7 10 12 11 12 13 14 14
17 17 20 19 17 16 15 14 14 13 12 11 11 10 10 9 9 8 7 7 6 6 6 6 6 7 7 7 7 7 7 7 9 6 6 6 10 11 10 11 13 14 14
16 16 20 18 17 16 15 14 13 13 12 11 10 9 9 8 8 7 7 6 6 5 6 6 6 6 7 7 7 7 6 6 6 6 5 5 10 12 10 11 12 13 13
14 15 18 17 16 15 14 14 13 12 12 11 10 9 8 8 7 7 6 6 6 6 6 6 6 7 7 7 6 6 6 7 7 6 6 6 12 10 10 10 11 13 13
13 13 14 16 15 14 13 13 12 12 11 11 10 10 9 8 7 7 6 7 7 7 7 6 6 7 8 7 7 6 6 7 8 5 6 6 13 11 10 10 11 12 13
10 10 11 12 12 13 13 12 11 11 10 10 10 9 9 9 9 9 9 9 8 8 8 8 8 8 8 9 8 8 7 8 10 7 6 7 13 11 11 12 12 12 13
9 8 8 9 9 9 10 12 12 11 10 10 10 10 10 9 9 10 10 7 8 9 9 9 9 10 10 11 11 10 10 11 11 8 7 10 11 12 13 13 14 14 14
11 9 7 7 7 7 6 8 8 9 9 9 7 8 8 7 7 7 4 6 8 10 11 12 11 11 12 12 13 14 12 13 11 9 7 11 10 12 14 15 16 16 16
10 8 7 6 5 5 4 4 4 4 5 6 6 6 6 6 6 6 5 6 8 11 11 10 11 11 11 10 8 10 12 11 10 10 9 14 12 13 15 16 17 18 18
9 7 6 5 5 4 3 3 3 3 3 4 5 6 6 4 4 5 5 6 6 7 7 8 7 9 10 11 11 11 12 11 10 10 8 14 14 15 16 17 18 20 20
7 7 6 4 4 3 3 2 2 2 3 3 3 4 4 4 4 4 4 5 7 7 7 7 8 8 9 11 12 12 13 13 14 13 10 12 15 16 17 18 19 20 21
7 7 6 5 4 3 2 2 1 2 1 2 2 2 3 4 4 4 5 6 7 7 7 8 8 8 8 8 11 12 13 14 14 14 14 13 17 19 19 19 20 21 22
6 6 6 5 4 3 2 1 1 0 1 1 1 1 2 2 2 4 4 5 5 6 7 7 8 8 7 9 11 12 11 13 13 14 15 14 14 19 21 21 21 22 23
6 6 6 5 6 4 3 1 1 1 1 1 1 1 1 1 2 3 3 4 4 5 5 5 6 7 7 8 9 9 9 10 13 14 15 15 15 15 18 22 22 23 24
6 6 5 5 5 4 4 3 2 2 1 1 0 0 0 1 2 3 3 3 4 4 4 6 5 6 7 8 9 9 9 10 11 13 14 15 16 16 15 18 23 24 25
6 6 5 5 4 4 4 3 2 2 1 1 1 1 1 1 2 4 3 3 5 5 5 5 5 6 7 7 9 9 9 10 10 11 13 13 15 17 18 18 18 21 26
6 6 6 5 4 3 2 1 1 1 1 1 1 0 1 2 3 4 5 3 5 5 6 7 7 7 7 6 7 9 9 10 10 10 10 11 13 15 16 17 17 17 18
6 5 5 5 4 3 2 1 0 1 2 2 2 1 2 3 4 4 4 6 5 5 7 7 7 7 6 5 6 7 7 8 8 9 8 10 11 11 12 15 17 17 18
6 5 4 4 4 3 2 2 1 2 3 3 3 3 3 4 4 5 5 6 6 8 7 6 7 8 7 6 6 6 6 6 5 5 6 7 8 8 9 10 14 16 19
6 5 5 5 4 3 3 3 3 3 4 4 4 4 4 5 5 6 6 6 7 8 7 8 7 7 8 8 6 6 7 7 6 6 6 6 7 8 8 8 10 12 16
5 5 5 4 3 2 2 2 4 5 5 5 5 5 6 5 5 6 6 7 7 8 8 8 8 9 9 9 8 7 7 7 8 8 8 6 6 7 7 8 8 9 13
5 4 4 4 3 2 2 2 3 4 5 6 7 7 7 6 5 6 7 7 8 8 8 9 9 10 9 9 9 8 8 7 7 7 8 8 8 7 7 6 8 8 10
Wind_Direction
156 148 147 155 154 151 149 150 150 153 155 155 155 154 153 151 149 147 143 139 134 128 118 110 107 107 113 114 114 112 114 114 113 113 112 111 114 117 123 133 140 120 119
151 147 148 155 154 152 149 148 148 150 153 155 155 154 155 154 152 149 146 143 140 134 121 112 107 105 107 110 113 114 116 118 118 118 122 120 116 117 124 128 109 118 126
148 146 153 155 155 152 148 145 146 148 150 152 153 153 154 155 154 153 151 149 146 140 128 119 114 111 111 113 116 118 121 122 123 134 165 135 120 119 119 110 108 122 127
148 150 157 154 155 152 149 146 145 146 148 150 152 154 155 156 157 157 157 156 154 147 137 132 127 123 122 124 125 126 128 128 134 176 168 121 126 123 126 124 125 130 131
150 152 149 155 156 154 151 149 148 147 148 150 152 154 156 159 161 163 165 164 161 154 148 146 141 136 133 134 134 134 134 137 159 210 115 118 119 128 135 134 136 136 136
154 154 148 158 157 156 154 152 151 150 151 152 154 157 161 164 169 171 172 172 168 166 161 159 155 150 145 144 145 146 145 156 198 147 131 137 127 138 144 143 142 140 141
156 151 150 159 159 159 158 157 155 155 156 158 160 163 167 172 177 181 182 182 181 180 177 172 169 164 160 158 159 162 165 192 225 137 150 135 122 141 153 153 149 147 146
155 152 148 158 161 162 163 163 162 161 162 165 168 172 178 183 190 194 194 198 197 195 194 188 184 179 176 175 176 181 189 224 215 170 170 146 127 153 164 163 159 155 153
157 153 154 163 166 167 168 169 168 169 170 174 178 182 189 194 200 205 208 209 212 212 209 204 199 195 192 190 192 197 208 239 254 194 189 160 144 168 177 174 170 166 163
157 154 158 164 169 173 175 176 177 179 181 185 188 192 199 205 209 212 219 211 221 225 222 219 216 212 209 206 206 208 214 232 240 213 204 160 153 181 189 186 183 180 175
157 156 161 164 170 181 184 174 185 187 191 198 201 201 209 220 219 212 223 210 228 235 233 231 228 224 220 216 215 215 218 232 228 227 213 143 165 190 198 196 193 190 186
163 166 169 170 174 186 195 179 200 201 193 209 212 209 218 226 235 240 196 219 240 242 239 235 234 231 231 229 213 210 227 230 241 228 209 154 183 201 206 203 200 198 195
163 167 165 164 176 185 195 198 209 215 206 216 220 222 231 240 239 243 239 226 237 241 244 233 228 234 236 239 238 225 236 238 234 236 209 170 195 211 215 211 206 203 200
160 161 159 162 172 189 210 209 218 224 227 235 228 236 235 240 250 252 254 257 252 250 251 254 243 241 245 244 240 242 240 240 243 242 220 178 199 215 220 217 213 209 205
156 161 157 161 171 177 200 245 235 267 276 264 262 252 256 256 257 262 261 262 261 259 254 253 252 248 248 247 245 241 242 240 244 243 236 197 207 218 223 223 218 214 211
156 155 153 157 157 157 179 213 276 295 287 267 270 274 261 256 264 269 261 256 257 259 267 266 261 257 255 254 251 248 246 244 241 242 243 221 212 218 223 225 223 219 215
131 127 135 139 137 143 162 197 198 284 290 283 260 247 261 264 267 259 259 257 264 265 260 258 261 258 254 253 252 251 247 245 245 242 242 240 228 219 220 223 225 222 219
121 122 125 129 129 138 137 142 118 92 56 295 278 210 201 246 261 266 272 272 277 267 266 264 261 262 259 258 255 255 252 245 244 242 240 235 234 233 219 217 221 223 222
125 128 125 123 127 129 135 135 129 133 137 177 188 155 128 255 265 268 277 289 273 273 272 271 270 272 268 266 261 252 252 249 246 243 240 236 232 232 233 217 214 219 223
127 130 130 128 125 135 137 142 145 139 150 180 173 110 294 276 280 286 271 281 282 274 271 272 276 269 273 273 272 269 259 253 249 244 240 237 232 231 231 232 221 219 220
134 136 134 131 130 135 135 155 166 185 215 237 258 21 283 293 294 284 291 280 277 278 280 277 272 266 264 271 271 267 258 249 247 246 240 239 234 231 232 233 232 231 219
148 150 150 148 143 154 134 145 287 313 281 291 306 298 281 283 282 277 286 284 278 280 268 268 263 275 274 264 273 280 274 255 234 237 237 235 237 234 233 232 230 229 232
162 168 162 154 164 180 183 203 207 233 259 263 276 267 281 283 278 290 286 288 290 278 274 274 269 263 271 269 261 272 278 277 289 244 238 241 237 236 237 238 234 230 227
172 170 171 174 180 192 219 254 277 289 298 308 298 302 294 279 286 287 283 283 283 283 282 271 267 269 264 268 258 254 265 285 282 277 250 236 235 239 242 245 244 236 231
177 176 178 175 186 205 233 254 274 287 298 299 301 295 293 285 279 281 282 284 281 278 280 284 283 272 268 267 271 265 259 257 255 265 273 272 258 250 246 246 246 241 234
184 188 189 181 186 200 229 259 282 296 300 304 300 301 292 289 282 280 284 285 280 281 279 273 272 264 264 270 271 268 262 260 259 261 268 272 273 269 261 257 253 245 237
Height
1523 1524 1525 1528 1531 1534 1536 1539 1541 1543 1544 1546 1547 1549 1550 1551 1552 1553 1554 1555 1556 1557 1558 1559 1559 1560 1560 1561 1561 1561 1562 1562 1562 1562 1563 1563 1564 1564 1565 1566 1567 1568 1568
1523 1524 1526 1529 1532 1535 1537 1540 1542 1544 1546 1547 1549 1550 1551 1553 1554 1555 1556 1556 1557 1558 1559 1560 1561 1561 1562 1562 1562 1563 1563 1563 1564 1564 1565 1565 1566 1566 1567 1568 1569 1570 1570
1524 1525 1527 1530 1533 1536 1539 1541 1543 1545 1547 1549 1550 1551 1553 1554 1555 1556 1557 1558 1559 1560 1560 1561 1562 1562 1563 1563 1563 1564 1564 1565 1565 1566 1567 1569 1568 1568 1569 1570 1571 1571 1572
1525 1527 1529 1531 1535 1537 1540 1542 1544 1546 1548 1550 1551 1552 1554 1555 1556 1557 1558 1559 1560 1561 1561 1562 1563 1563 1564 1564 1565 1565 1566 1566 1567 1568 1571 1572 1571 1570 1571 1572 1572 1573 1574
1527 1529 1530 1533 1536 1539 1541 1544 1546 1547 1549 1551 1552 1554 1555 1556 1557 1558 1559 1560 1561 1562 1562 1563 1563 1564 1564 1565 1565 1566 1567 1568 1569 1570 1573 1573 1573 1572 1572 1573 1574 1575 1576
1529 1532 1532 1535 1538 1540 1542 1545 1547 1548 1550 1552 1553 1554 1556 1557 1558 1559 1560 1561 1562 1563 1563 1564 1564 1565 1565 1566 1566 1567 1568 1569 1570 1574 1573 1574 1574 1573 1574 1575 1576 1577 1578
1531 1533 1533 1536 1539 1541 1543 1546 1547 1549 1551 1552 1554 1555 1556 1557 1559 1560 1561 1562 1563 1563 1564 1565 1565 1566 1566 1567 1567 1568 1569 1570 1572 1574 1574 1575 1574 1574 1575 1576 1577 1579 1580
1533 1535 1535 1537 1540 1542 1544 1546 1548 1550 1551 1553 1554 1555 1556 1557 1559 1560 1561 1562 1563 1563 1564 1565 1565 1566 1567 1567 1568 1568 1569 1570 1573 1575 1575 1576 1574 1575 1576 1577 1578 1580 1581
1534 1537 1537 1539 1540 1543 1545 1547 1549 1550 1551 1553 1554 1555 1556 1557 1558 1559 1560 1561 1562 1563 1564 1564 1565 1566 1566 1567 1568 1569 1569 1570 1573 1574 1575 1576 1575 1575 1576 1577 1579 1580 1582
1535 1537 1539 1540 1542 1544 1545 1547 1548 1550 1551 1552 1553 1555 1556 1557 1558 1559 1560 1560 1561 1562 1563 1564 1564 1565 1565 1566 1567 1568 1569 1570 1572 1574 1575 1575 1574 1575 1576 1577 1579 1580 1582
1534 1537 1538 1540 1542 1544 1546 1547 1548 1550 1551 1552 1553 1554 1555 1557 1558 1558 1559 1559 1560 1561 1562 1562 1563 1563 1564 1565 1566 1566 1567 1569 1572 1573 1574 1574 1574 1575 1576 1577 1578 1580 1582
1534 1536 1538 1540 1542 1544 1547 1547 1549 1550 1551 1552 1553 1553 1554 1555 1556 1557 1557 1558 1559 1560 1560 1560 1561 1561 1562 1564 1564 1564 1566 1568 1570 1571 1572 1571 1573 1574 1575 1576 1578 1579 1581
1533 1536 1538 1539 1541 1544 1546 1547 1548 1550 1550 1551 1551 1552 1552 1553 1554 1555 1555 1556 1556 1557 1558 1559 1559 1559 1560 1562 1562 1563 1564 1566 1567 1568 1569 1568 1570 1572 1573 1575 1576 1578 1579
1533 1535 1537 1539 1540 1542 1544 1546 1546 1548 1548 1549 1550 1550 1550 1551 1551 1552 1552 1553 1554 1555 1555 1556 1556 1556 1557 1558 1558 1559 1561 1562 1563 1564 1565 1564 1567 1569 1570 1572 1574 1576 1578
1533 1534 1536 1538 1539 1541 1542 1544 1545 1546 1547 1547 1548 1548 1548 1548 1549 1549 1549 1550 1551 1552 1552 1552 1552 1553 1553 1554 1554 1555 1556 1557 1558 1560 1561 1560 1562 1564 1566 1569 1571 1573 1575
1533 1535 1536 1537 1539 1540 1542 1543 1543 1544 1544 1545 1545 1545 1545 1546 1546 1547 1547 1547 1548 1548 1548 1548 1549 1549 1549 1550 1550 1550 1551 1552 1553 1553 1555 1556 1557 1559 1561 1564 1566 1569 1571
1534 1536 1536 1537 1538 1539 1541 1541 1542 1543 1543 1543 1543 1543 1543 1544 1543 1543 1544 1544 1545 1544 1544 1544 1544 1545 1545 1545 1545 1545 1545 1546 1547 1548 1549 1551 1552 1553 1556 1558 1561 1564 1567
1534 1536 1537 1538 1538 1539 1540 1540 1541 1542 1542 1542 1541 1541 1541 1541 1541 1541 1542 1542 1541 1541 1541 1541 1541 1541 1541 1540 1540 1540 1540 1540 1541 1542 1543 1544 1546 1549 1550 1552 1555 1558 1561
1535 1536 1536 1537 1538 1539 1539 1539 1540 1540 1540 1541 1540 1540 1539 1539 1539 1539 1539 1539 1538 1538 1538 1538 1538 1537 1537 1536 1536 1535 1535 1535 1535 1536 1537 1538 1540 1542 1544 1546 1549 1552 1555
1535 1536 1537 1537 1538 1538 1539 1539 1540 1540 1540 1540 1539 1538 1538 1538 1537 1537 1537 1536 1536 1536 1535 1535 1534 1533 1533 1532 1532 1532 1531 1530 1530 1530 1530 1532 1533 1535 1537 1540 1542 1545 1548
1535 1536 1537 1537 1538 1538 1539 1540 1540 1540 1540 1539 1538 1537 1536 1536 1535 1535 1535 1533 1533 1533 1532 1532 1531 1530 1530 1529 1528 1528 1526 1525 1524 1524 1524 1526 1527 1529 1531 1533 1535 1539 1541
1536 1537 1537 1538 1538 1538 1539 1539 1539 1539 1539 1538 1537 1535 1534 1534 1533 1533 1532 1531 1531 1530 1528 1528 1527 1527 1527 1526 1525 1524 1523 1522 1520 1520 1520 1520 1521 1523 1525 1527 1528 1531 1534
1536 1537 1538 1537 1538 1538 1538 1539 1538 1538 1537 1537 1536 1535 1533 1532 1531 1530 1529 1528 1527 1527 1527 1525 1524 1524 1523 1523 1522 1522 1520 1517 1517 1517 1516 1516 1517 1518 1519 1521 1522 1524 1526
1536 1536 1536 1536 1537 1537 1537 1537 1537 1537 1536 1535 1534 1533 1531 1529 1528 1527 1526 1525 1524 1524 1523 1522 1522 1520 1520 1519 1519 1518 1518 1516 1516 1514 1514 1513 1513 1513 1514 1515 1516 1518 1520
1536 1536 1536 1535 1535 1535 1535 1535 1534 1534 1533 1533 1531 1529 1527 1527 1525 1524 1522 1521 1520 1520 1519 1517 1517 1516 1516 1516 1515 1514 1514 1513 1512 1512 1510 1510 1509 1509 1509 1510 1510 1512 1513
1534 1534 1534 1534 1533 1533 1533 1532 1531 1531 1529 1529 1527 1526 1525 1524 1522 1521 1519 1517 1516 1516 1515 1513 1512 1512 1511 1511 1511 1511 1510 1510 1509 1508 1507 1506 1505 1505 1504 1504 1505 1506 1507